Location: Gias della Casa
(44.1667°N, 7.2667°E)
Time: 14:48:01
(UTC+00:00)

Daily predictions for brighter satellites

Satellite Brightness Start Highest point End
(mag) Time Altitude Azimuth Time Altitude Azimuth Time Altitude Azimuth
Cosmos 2026 Rocket 4.4 19:42:22 10° SSW 19:48:30 69° W 19:54:35 10° N
SPOT 5 3.1 19:46:45 10° SE 19:50:52 46° ENE 19:55:05 10° N
SL-24 R/B 4.3 19:47:25 10° S 19:52:15 79° W 19:56:27 10° NNW
KORONAS-FOTON 3.7 19:50:11 10° S 19:53:53 78° E 19:57:37 10° N
SL-16 R/B 2.8 19:50:36 10° NNW 19:56:04 46° ENE 20:01:29 10° SE
Cosmos 1933 Rocket 3.7 19:53:19 10° N 19:57:45 66° E 20:02:09 10° SSE
Cosmos 676 Rocket 4.0 19:52:37 10° S 19:57:53 68° ESE 20:03:10 10° NNE
USA 234 3.5 19:51:34 10° ENE 19:57:53 49° SE 20:04:09 10° SSW
Cosmos 2082 Rocket 3.1 19:52:47 10° SW 19:58:24 56° WNW 20:04:00 10° NNE
Cosmos 2333 Rocket 3.7 19:54:48 10° N 19:59:31 25° NE 20:04:15 10° ESE
USA 186 4.4 19:57:24 10° SW 19:59:58 21° W 20:02:33 10° NW
Cosmos 1842 3.2 19:56:37 10° S 20:00:16 79° W 20:03:57 10° N
Cosmos 2369 4.3 19:55:05 10° NNW 20:00:41 56° WSW 20:06:15 10° S
Cosmos 1190 Rocket 4.4 19:55:52 10° SSW 20:01:09 71° WNW 20:06:28 10° NNE
CZ-4 R/B 4.1 20:00:30 10° SW 20:03:07 17° W 20:05:46 10° NW
Resurs 01 Rocket 3.3 20:05:21 10° SSW 20:09:16 31° W 20:13:12 10° NNW
Atlas Centaur 2 3.9 20:02:51 10° WSW 20:09:32 30° S 20:16:21 10° SE
Cosmos 1346 Rocket 4.4 20:10:38 10° NNE 20:13:30 19° ENE 20:16:09 11° ESE
Tiangong -0.4 20:11:46 10° WSW 20:14:16 21° SSW 20:16:23 12° SSE
ERS-1 Rocket 3.3 20:10:06 10° SSE 20:14:59 54° ENE 20:19:54 10° N
MetOp-B 4.2 20:10:47 10° SSE 20:16:07 85° ENE 20:21:31 10° NNW
Cosmos 841 Rocket 3.8 20:12:31 10° NNW 20:17:43 56° ENE 20:22:24 12° SE
Cosmos 1763 Rocket 4.4 20:13:42 10° NNW 20:18:41 46° WSW 20:23:35 10° S
Cosmos 1707 3.4 20:19:26 10° SSW 20:22:58 53° WNW 20:26:30 10° N
RESURS DK-1 2.8 20:19:56 10° NNW 20:23:53 47° ENE 20:27:05 15° SE
SJ 16-02 2.8 20:23:40 14° SE 20:25:51 19° E 20:28:54 10° NE
Terra 2.0 20:21:54 12° SSE 20:26:08 57° ENE 20:30:46 10° N
Spot 2 Rocket 3.8 20:23:44 13° SE 20:28:10 54° ENE 20:33:08 10° N
Cosmos 1707 Rocket 4.4 20:25:27 13° SSE 20:28:48 32° E 20:32:46 10° NNE
IRS-1A Rocket 4.2 20:23:22 10° SSE 20:28:51 89° ENE 20:34:24 10° NNW
Cosmos 1758 3.8 20:31:21 10° N 20:35:05 42° ENE 20:37:41 18° SE
CZ-4C R/B 4.1 20:31:11 10° N 20:35:15 56° WNW 20:39:16 10° SSW
Cosmos 1980 Rocket 4.3 20:31:48 10° NW 20:36:01 22° W 20:40:13 10° SSW
ATLAS 2AS CENTAUR R/B 3.2 20:31:50 10° NNW 20:38:31 52° NE 20:44:10 14° ESE
Cosmos 2322 Rocket 2.4 20:32:54 10° NNW 20:38:33 62° ENE 20:42:59 17° SE
SL-08 ROCKET BODY 4.4 20:32:32 10° S 20:38:39 77° E 20:44:42 10° N
Meteor 1-22 Rocket 4.3 20:33:44 10° N 20:39:26 84° E 20:44:48 13° SSE
BREEZE-M DEB (TANK) 3.4 20:36:26 10° WSW 20:39:55 86° NNW 20:51:59 10° ENE
ARGOS Delta rocket 4.3 20:38:08 10° S 20:42:31 53° W 20:46:49 10° NNW
Meteor 2-10 Rocket 3.7 20:37:55 10° N 20:43:29 70° ENE 20:47:42 16° SSE
SL-4 R/B 4.0 20:46:16 10° WNW 20:49:35 27° N 20:53:06 10° ENE
Cosmos 1733 Rocket 3.4 20:45:58 10° N 20:50:16 50° ENE 20:53:00 21° SSE
Cosmos 2278 4.3 20:45:39 10° NNW 20:51:12 54° WSW 20:56:03 13° S
Ariane Rocket 3.0 20:48:54 17° SSE 20:52:56 84° ENE 20:58:02 10° NNW
Okean 1-7 4.3 20:53:31 20° ESE 20:55:13 25° E 20:58:46 10° NNE
Timation 1 Rocket 4.4 20:49:25 10° SSW 20:55:23 81° WNW 21:01:23 10° NNE
Cosmos 1300 2.5 20:51:51 10° N 20:55:24 69° E 20:57:21 25° SSE
S3M 4.2 20:49:26 10° N 20:55:49 75° W 21:01:40 12° S
SL-27 R/B 1.7 20:54:25 24° S 20:55:51 64° ESE 20:58:37 10° NNE
Cosmos 1400 Rocket 3.4 20:55:42 10° SSW 20:59:30 54° WNW 21:03:17 10° N
Meteor 1-21 4.3 20:56:48 14° S 21:01:47 67° E 21:07:34 10° NNE
Cosmos 1356 Rocket 3.3 20:59:27 15° S 21:02:52 83° E 21:07:06 10° NNE
Cosmos 2219 Rocket 3.0 20:57:45 10° NNW 21:03:07 41° ENE 21:06:53 18° ESE
Cosmos 2266 Rocket 4.4 20:58:13 10° SSW 21:04:28 65° W 21:10:51 10° N
COSMOS 2428 4.4 21:00:06 10° N 21:04:32 23° NE 21:08:56 10° E
USA 245 4.1 21:02:18 16° SSW 21:04:52 45° W 21:09:00 10° NNW
BREEZE-M DEB (TANK) 2.4 21:02:57 10° WNW 21:04:58 56° NNE 21:06:53 19° E
ATLAS CENTAUR R/B 1.2 21:02:35 10° SW 21:06:02 70° NW 21:09:38 10° NNE
Cosmos 1850 Rocket 4.1 21:02:27 10° SSW 21:07:41 79° WNW 21:12:55 10° NNE
Okean 2 4.2 21:08:11 26° SE 21:09:27 32° E 21:13:02 10° NNE
Cosmos 1655 Rocket 4.1 21:03:37 10° S 21:10:01 83° W 21:16:28 10° N
Meteor 1-4 Rocket 2.4 21:13:07 40° SE 21:13:34 44° E 21:16:28 10° NNE
Cosmos 2228 Rocket 3.3 21:09:51 13° SSW 21:13:52 74° W 21:18:27 10° N
MOS 1 Rocket 3.9 21:10:22 17° S 21:14:33 64° W 21:19:49 10° NNW
Cosmos 1315 Rocket 3.3 21:17:29 31° SE 21:18:46 42° E 21:22:34 10° NNE
Cosmos 1953 3.1 21:16:11 10° N 21:19:42 34° ENE 21:20:51 27° ESE
Cosmos 968 Rocket 3.5 21:16:00 10° SSW 21:21:08 86° WNW 21:26:22 10° NNE
SPOT 3 Rocket 3.9 21:18:17 19° S 21:21:54 59° W 21:27:01 10° NNW
SeaSat 1 3.3 21:19:03 19° S 21:22:13 42° WSW 21:26:52 10° NW
Spot 1 4.2 21:20:23 10° NNE 21:24:58 89° E 21:28:26 19° SSW
Cosmos 2360 Rocket 2.3 21:22:38 10° NNW 21:28:18 72° WSW 21:31:30 27° S
Cosmos 1242 Rocket 3.7 21:29:30 21° ENE 21:29:30 21° ENE 21:31:05 10° NE
MetOp-A 4.0 21:28:25 27° SSE 21:31:18 89° ENE 21:36:36 10° NNW
BlueWalker 3 2.4 21:31:50 37° ESE 21:31:50 37° ESE 21:34:52 10° ENE
Cosmos 1814 Rocket 4.0 21:29:16 10° NNW 21:34:36 89° ENE 21:37:16 31° SSE
COSMOS 2455 3.9 21:35:30 24° SE 21:36:37 26° ESE 21:41:27 10° NE
SL-16 R/B 3.7 21:35:09 10° NW 21:39:54 28° WSW 21:43:40 14° SSW
USA 234 3.9 21:34:34 10° NE 21:40:57 59° NNW 21:47:21 10° WSW
Landsat 5 3.8 21:37:32 10° N 21:41:31 61° WNW 21:44:11 21° SSW
Cosmos 2333 Rocket 2.5 21:38:33 10° NNW 21:44:12 59° WSW 21:47:09 28° S
Cosmos 1703 Rocket 3.8 21:43:33 38° SSE 21:44:57 56° E 21:49:19 10° NNE
Cosmos 1862 Rocket 4.5 21:42:41 16° SW 21:45:57 45° WNW 21:50:14 10° N
Okean 3 4.1 21:46:07 21° SW 21:48:38 50° WNW 21:52:43 10° N
Cosmos 1346 Rocket 4.2 21:45:59 10° NNW 21:49:23 30° W 21:51:09 21° SW
DNEPR-1 R/B 4.2 21:45:19 10° NW 21:51:57 89° SW 21:54:25 35° SSE
SL-08 R/B 4.4 21:50:33 28° S 21:53:57 81° E 22:00:04 10° N
Cosmos 1408 4.1 21:55:12 18° ENE 21:55:12 18° ENE 21:56:41 10° NE
Cosmos 1455 1.8 21:51:03 10° N 21:54:34 82° E 21:55:03 64° SSE
Atlas Centaur 2 4.2 21:51:56 10° WSW 21:57:48 21° SSW 21:58:33 21° SSW
CZ-4C R/B 2.8 21:58:28 26° ESE 21:58:28 26° ESE 22:02:27 10° NE
H-2A R/B 3.6 21:58:41 29° ESE 21:59:56 35° ENE 22:03:49 10° N
Cosmos 2237 Rocket 3.8 21:58:45 10° N 22:03:26 25° NE 22:07:12 14° E
SJ 16-02 2.5 22:00:22 13° SW 22:03:52 40° WNW 22:07:59 10° N
Terra 4.1 22:01:10 10° SW 22:04:05 16° W 22:07:01 10° NW
GENESIS II 3.9 22:04:45 57° SSW 22:05:26 89° SE 22:09:06 10° NE
Cosmos 2322 3.7 22:01:32 10° NNW 22:07:14 73° ENE 22:09:35 36° SE
CZ-2C R/B 3.5 22:03:40 10° NNE 22:08:06 84° E 22:09:28 45° S
Cosmos 2227 Rocket 4.1 22:08:29 13° E 22:08:47 13° E 22:11:26 10° ENE
Cosmos 371 Rocket 3.9 22:15:49 37° ESE 22:16:19 38° ESE 22:20:46 10° NE
Cosmos 2322 Rocket 4.0 22:17:58 10° NW 22:22:04 21° W 22:24:47 15° SW
ARIANE 5 R/B 2.6 22:23:17 52° SSW 22:24:13 71° WSW 22:28:33 10° NNW
Cosmos 1238 4.4 22:23:14 10° N 22:26:32 86° E 22:26:41 81° SSE
NOSS 5 (C) 4.5 22:25:03 10° NNW 22:27:59 66° NNE 22:27:59 66° NNE
Cosmos 2297 Rocket 2.8 22:27:16 36° SE 22:28:13 38° ESE 22:33:24 10° NE
SL-4 R/B 3.1 22:25:11 10° NW 22:29:01 43° NNE 22:31:56 17° E
ATLAS 2AS CENTAUR R/B 3.5 22:23:08 10° NW 22:29:09 35° WSW 22:31:35 27° SSW
Cosmos 1486 Rocket 4.0 22:28:54 47° SSE 22:30:10 63° ESE 22:35:19 10° NNE
USA 281 3.3 22:34:22 37° S 22:37:07 70° WSW 22:43:43 10° NNW
NOSS 8 (H) 4.5 22:37:57 73° ENE 22:37:57 73° ENE 22:40:52 10° NE
Cosmos 1745 Rocket 4.1 22:35:00 34° SSW 22:37:59 77° W 22:44:23 10° N
Spot 4 3.7 22:41:21 54° SSE 22:42:28 85° ENE 22:47:18 10° NNW
GP-B 4.0 22:38:21 10° NNW 22:42:31 42° W 22:43:50 33° SW
Cosmos 1782 Rocket 3.8 22:41:13 10° NNW 22:45:27 56° W 22:46:09 49° SW
Cosmos 2219 Rocket 3.3 22:41:56 10° NW 22:46:55 32° WSW 22:48:35 27° SW
Nadezhda 1 Rocket 4.3 22:41:52 10° NNW 22:48:02 60° W 22:50:31 35° SSW
Meteor 2-5 Rocket 3.9 22:46:15 43° SSE 22:48:02 63° E 22:53:49 10° NNE
COSMOS 2428 2.8 22:43:38 10° NNW 22:49:17 67° WSW 22:50:54 46° S
Cosmos 2084 Rocket 4.1 22:55:25 39° E 22:55:25 39° E 22:58:42 10° NE
Cosmos 1953 4.4 22:52:45 10° NW 22:55:12 17° W 22:55:58 16° W
Cosmos 2098 Rocket 4.1 22:49:51 10° N 22:56:28 68° E 22:58:49 40° SSE
Cosmos 2181 Rocket 4.3 22:51:09 10° N 22:57:13 55° ENE 22:59:29 36° SE
H-2A R/B 3.1 22:55:27 10° NE 22:59:07 30° E 22:59:07 30° E
Cosmos 2263 Rocket 4.2 23:00:27 13° ESE 23:01:04 13° E 23:03:40 10° ENE
Cosmos 1300 Rocket 4.1 22:58:30 10° NNW 23:02:36 44° W 23:03:09 41° WSW
Cosmos 304 Rocket 3.6 23:03:17 59° SSW 23:04:11 89° WNW 23:08:59 10° NNE
Cosmos 158 Rocket 4.4 23:04:12 10° NNW 23:09:15 47° WSW 23:10:13 41° SW
BlueWalker 3 3.2 23:06:00 10° W 23:09:32 39° NNW 23:13:04 10° NE
Cosmos 332 Rocket 4.2 23:09:39 44° ESE 23:10:05 45° ESE 23:14:45 10° NNE
Cosmos 2151 Rocket 3.9 23:06:32 10° N 23:10:52 54° ENE 23:11:26 50° ESE
Cosmos 405 Rocket 2.7 23:08:27 10° N 23:12:07 71° ENE 23:12:07 71° ENE
ALOS 2 2.6 23:14:27 58° SW 23:14:52 62° W 23:19:15 10° NNW
Okean 2 Rocket 3.3 23:13:00 10° N 23:17:26 58° E 23:18:04 52° ESE
Cosmos 1674 Rocket 3.6 23:20:04 60° ESE 23:20:23 63° E 23:24:41 10° NNE
Cosmos 1378 Rocket 3.4 23:20:47 71° SE 23:21:07 77° E 23:25:31 10° NNE
COSMOS 2455 3.3 23:18:35 24° SW 23:22:08 58° NW 23:28:06 10° NNE
CENTAUR R/B 2.6 23:24:42 42° SE 23:25:40 46° ESE 23:32:00 10° NE
Cosmos 1025 Rocket 4.3 23:25:42 29° E 23:26:05 29° E 23:29:49 10° NNE
NOSS 0 Rocket 4.3 23:22:04 10° NW 23:28:05 52° WSW 23:29:40 42° SSW
Cosmos 773 Rocket 4.1 23:26:10 10° NNW 23:31:12 56° WSW 23:32:01 50° SW
H-2A R/B 4.1 23:34:40 22° W 23:34:54 23° W 23:38:18 10° NW
Cosmos 1703 4.5 23:34:51 29° W 23:35:05 29° WNW 23:38:21 10° NNW
Cosmos 2221 Rocket 3.4 23:34:53 71° SSE 23:35:20 83° E 23:39:48 10° N
Cosmos 1892 2.7 23:37:30 67° N 23:37:30 67° N 23:40:36 10° N
SL-16 R/B 3.2 23:35:45 10° NNW 23:41:10 43° ENE 23:44:44 20° ESE
Cosmos 1174 3.8 23:36:29 10° NNW 23:41:20 86° NE 23:41:41 75° SE
Cosmos 1328 4.0 23:42:44 55° E 23:42:44 55° E 23:46:28 10° NNE
Sich 1 Rocket 3.4 23:38:37 10° NNW 23:43:00 75° W 23:43:22 70° SW
Nadezhda 3 Rocket 4.3 23:38:23 10° N 23:44:36 60° E 23:47:09 35° SE
Cosmos 1777 Rocket 4.4 23:43:34 38° WSW 23:45:22 56° WNW 23:50:35 10° NNE
CZ-4C R/B 2.9 23:43:30 21° WSW 23:46:11 42° NW 23:51:35 10° NNE
Cosmos 2237 Rocket 2.3 23:42:18 10° NNW 23:47:51 57° WSW 23:48:59 48° SSW
BREEZE-M DEB (TANK) 3.2 23:41:47 10° WNW 23:49:26 56° N 23:51:40 16° E
Cosmos 2227 Rocket 2.1 23:50:16 48° SSW 23:51:58 88° WNW 23:57:41 10° NNE
Cosmos 2184 Rocket 4.0 23:50:14 44° S 23:52:28 88° W 23:58:53 10° N
